TimeCST,TemperatureF,Dew PointF,Humidity,Sea Level PressureIn,VisibilityMPH,Wind Direction,Wind SpeedMPH,Gust SpeedMPH,PrecipitationIn,Events,Conditions,WindDirDegrees,DateUTC
12:15 AM,7.7,5.5,91,29.77,4.0,SW,9.2,-,N/A,Snow,Light Snow,220,2013-12-17 06:15:00
12:35 AM,7.7,5.5,91,29.76,3.0,SW,8.1,-,N/A,Snow,Light Snow,220,2013-12-17 06:35:00
12:55 AM,8.2,5.9,90,29.76,5.0,SW,5.8,-,N/A,Snow,Light Snow,220,2013-12-17 06:55:00
1:15 AM,8.4,6.3,91,29.75,5.0,SW,6.9,-,N/A,Snow,Light Snow,220,2013-12-17 07:15:00
1:35 AM,9.0,6.8,91,29.75,5.0,SW,5.8,-,N/A,Snow,Light Snow,220,2013-12-17 07:35:00
1:55 AM,9.3,7.0,90,29.75,5.0,SW,5.8,-,N/A,Snow,Light Snow,220,2013-12-17 07:55:00
2:15 AM,9.7,7.5,91,29.74,5.0,SSW,6.9,-,N/A,Snow,Light Snow,210,2013-12-17 08:15:00
2:35 AM,10.0,7.7,90,29.72,5.0,SSW,4.6,-,N/A,Snow,Light Snow,200,2013-12-17 08:35:00
2:55 AM,10.4,8.1,90,29.72,5.0,SSW,5.8,-,N/A,,Overcast,210,2013-12-17 08:55:00
3:15 AM,10.4,8.2,91,29.72,7.0,SSW,3.5,-,N/A,,Overcast,210,2013-12-17 09:15:00
3:35 AM,11.1,8.6,90,29.71,5.0,SW,4.6,-,N/A,,Overcast,220,2013-12-17 09:35:00
3:55 AM,11.3,9.1,91,29.71,7.0,SSW,4.6,-,N/A,,Overcast,210,2013-12-17 09:55:00
4:15 AM,12.0,9.5,90,29.71,7.0,SW,4.6,-,N/A,,Overcast,230,2013-12-17 10:15:00
4:35 AM,12.2,9.9,90,29.70,7.0,SW,3.5,-,N/A,,Overcast,220,2013-12-17 10:35:00
4:55 AM,12.2,10.0,91,29.70,7.0,Calm,Calm,-,N/A,,Overcast,0,2013-12-17 10:55:00
5:15 AM,12.6,10.2,90,29.70,7.0,SW,3.5,-,N/A,,Overcast,220,2013-12-17 11:15:00
5:35 AM,12.7,10.4,90,29.70,7.0,WSW,4.6,-,N/A,,Overcast,240,2013-12-17 11:35:00
5:55 AM,13.1,10.8,90,29.70,7.0,SW,3.5,-,N/A,,Overcast,230,2013-12-17 11:55:00
6:15 AM,13.6,11.3,90,29.71,7.0,WSW,6.9,-,N/A,Snow,Light Snow,240,2013-12-17 12:15:00
6:35 AM,13.5,11.3,91,29.70,7.0,WSW,4.6,-,N/A,,Overcast,240,2013-12-17 12:35:00
6:55 AM,13.6,11.3,90,29.70,10.0,WSW,3.5,-,N/A,,Overcast,250,2013-12-17 12:55:00
7:15 AM,14.5,12.6,92,29.71,7.0,West,6.9,-,N/A,,Overcast,260,2013-12-17 13:15:00
7:35 AM,14.9,13.1,93,29.71,7.0,West,8.1,-,N/A,,Overcast,270,2013-12-17 13:35:00
7:55 AM,15.8,14.0,93,29.71,7.0,West,6.9,-,N/A,,Overcast,280,2013-12-17 13:55:00
8:15 AM,16.7,14.9,93,29.72,7.0,West,5.8,-,N/A,,Overcast,260,2013-12-17 14:15:00
8:35 AM,17.6,15.8,93,29.72,10.0,West,5.8,-,N/A,,Overcast,260,2013-12-17 14:35:00
8:55 AM,18.3,16.7,93,29.73,10.0,West,6.9,-,N/A,,Overcast,270,2013-12-17 14:55:00
9:15 AM,18.5,17.1,94,29.74,10.0,West,6.9,-,N/A,,Overcast,270,2013-12-17 15:15:00
9:35 AM,19.0,17.6,94,29.75,10.0,WSW,4.6,-,N/A,,Overcast,250,2013-12-17 15:35:00
9:55 AM,19.4,18.1,95,29.75,10.0,West,3.5,-,N/A,,Overcast,260,2013-12-17 15:55:00
10:15 AM,20.3,18.9,94,29.75,10.0,West,6.9,-,N/A,,Overcast,270,2013-12-17 16:15:00
10:35 AM,21.0,19.4,93,29.75,10.0,West,6.9,-,N/A,,Overcast,270,2013-12-17 16:35:00
10:55 AM,21.2,19.4,93,29.75,10.0,West,5.8,-,N/A,,Overcast,270,2013-12-17 16:55:00
11:15 AM,21.6,19.4,91,29.74,7.0,West,6.9,-,N/A,Snow,Light Snow,260,2013-12-17 17:15:00
11:35 AM,22.1,19.2,89,29.74,10.0,WNW,8.1,-,N/A,,Overcast,290,2013-12-17 17:35:00
11:55 AM,22.5,19.0,87,29.75,4.0,WNW,9.2,-,N/A,Snow,Light Snow,300,2013-12-17 17:55:00
12:15 PM,22.5,18.7,85,29.75,3.0,WNW,9.2,-,N/A,Snow,Light Snow,300,2013-12-17 18:15:00
12:35 PM,22.5,18.0,83,29.75,5.0,WNW,12.7,-,N/A,Snow,Light Snow,300,2013-12-17 18:35:00
12:55 PM,22.1,17.2,82,29.76,5.0,WNW,15.0,20.7,N/A,Snow,Light Snow,290,2013-12-17 18:55:00
1:15 PM,21.9,16.7,80,29.76,7.0,WNW,10.4,-,N/A,Snow,Light Snow,300,2013-12-17 19:15:00
1:35 PM,21.9,16.2,78,29.75,10.0,NW,9.2,-,N/A,Snow,Light Snow,310,2013-12-17 19:35:00
1:55 PM,21.7,15.4,77,29.76,10.0,NW,11.5,17.3,N/A,,Overcast,310,2013-12-17 19:55:00
2:15 PM,21.9,14.9,74,29.76,10.0,WNW,9.2,18.4,N/A,,Overcast,300,2013-12-17 20:15:00
2:35 PM,21.2,14.4,75,29.77,10.0,WNW,11.5,17.3,N/A,,Overcast,300,2013-12-17 20:35:00
2:55 PM,20.3,13.3,74,29.78,10.0,NW,11.5,19.6,N/A,,Overcast,310,2013-12-17 20:55:00
3:15 PM,20.3,14.0,77,29.78,10.0,NW,8.1,-,N/A,Snow,Light Snow,310,2013-12-17 21:15:00
3:35 PM,20.1,14.2,78,29.79,10.0,WNW,8.1,-,N/A,,Overcast,300,2013-12-17 21:35:00
3:55 PM,19.4,15.6,85,29.81,2.0,NNW,5.8,-,N/A,Snow,Light Snow,330,2013-12-17 21:55:00
4:15 PM,18.5,14.7,85,29.82,2.5,NW,9.2,-,N/A,Snow,Light Snow,320,2013-12-17 22:15:00
4:35 PM,18.1,13.5,82,29.82,7.0,NW,11.5,16.1,N/A,Snow,Light Snow,310,2013-12-17 22:35:00
4:55 PM,17.6,13.1,83,29.83,7.0,WNW,9.2,-,N/A,Snow,Light Snow,300,2013-12-17 22:55:00
5:15 PM,17.4,13.6,85,29.84,5.0,NW,6.9,-,N/A,Snow,Light Snow,320,2013-12-17 23:15:00
5:35 PM,16.5,12.2,83,29.85,5.0,NW,10.4,-,N/A,Snow,Light Snow,320,2013-12-17 23:35:00
5:55 PM,15.8,11.8,84,29.86,4.0,NW,10.4,-,N/A,Snow,Light Snow,320,2013-12-17 23:55:00
6:15 PM,15.3,11.1,84,29.86,7.0,WNW,6.9,-,N/A,Snow,Light Snow,300,2013-12-18 00:15:00
6:35 PM,15.1,10.2,81,29.87,10.0,WNW,9.2,-,N/A,,Overcast,300,2013-12-18 00:35:00
6:55 PM,14.9,10.0,81,29.88,10.0,WNW,8.1,-,N/A,,Overcast,300,2013-12-18 00:55:00
7:15 PM,14.5,9.9,82,29.89,10.0,NW,12.7,19.6,N/A,Snow,Light Snow,320,2013-12-18 01:15:00
7:35 PM,13.1,7.5,78,29.89,7.0,NW,11.5,24.2,N/A,Snow,Light Snow,320,2013-12-18 01:35:00
7:55 PM,12.2,6.6,78,29.89,7.0,NW,11.5,17.3,N/A,Snow,Light Snow,320,2013-12-18 01:55:00
8:15 PM,11.7,5.9,78,29.90,10.0,NW,10.4,-,N/A,Snow,Light Snow,320,2013-12-18 02:15:00
8:35 PM,11.3,5.9,79,29.90,5.0,NW,9.2,-,N/A,Snow,Light Snow,320,2013-12-18 02:35:00
8:55 PM,11.1,6.3,81,29.90,4.0,NNW,6.9,-,N/A,Snow,Light Snow,330,2013-12-18 02:55:00
9:15 PM,10.8,5.5,79,29.91,10.0,NW,6.9,-,N/A,,Overcast,320,2013-12-18 03:15:00
9:35 PM,10.4,4.8,78,29.92,10.0,NW,6.9,-,N/A,,Overcast,320,2013-12-18 03:35:00
9:55 PM,10.0,4.8,79,29.92,10.0,NW,8.1,-,N/A,,Overcast,320,2013-12-18 03:55:00
10:15 PM,9.9,4.8,80,29.92,7.0,WNW,5.8,-,N/A,Snow,Light Snow,300,2013-12-18 04:15:00
10:35 PM,9.9,4.8,80,29.92,10.0,WNW,4.6,-,N/A,Snow,Light Snow,300,2013-12-18 04:35:00
10:55 PM,9.5,4.5,80,29.92,7.0,WNW,4.6,-,N/A,Snow,Light Snow,290,2013-12-18 04:55:00
11:15 PM,9.5,5.0,82,29.92,7.0,NW,8.1,-,N/A,Snow,Light Snow,310,2013-12-18 05:15:00
11:35 PM,9.5,3.4,76,29.92,10.0,WNW,5.8,-,N/A,,Overcast,300,2013-12-18 05:35:00
11:55 PM,9.5,3.0,75,29.92,10.0,West,6.9,-,N/A,Snow,Light Snow,280,2013-12-18 05:55:00